CW5404 Weather Reports


time (UTC)temp
C
wind
direction
speed
KPH
gust
KPH
rain 1hr
cm
rain 24hr
cm
rain mn
cm
humidity
%
barometer
mb
20260504021918 28 0.0 0.0 0.00 0.00 0.00 36 1006.1
20260504021418 28 0.0 0.0 0.00 0.00 0.00 33 1006.1
20260504020918 28 0.0 0.0 0.00 0.00 0.00 32 1006.2
20260504020418 28 0.0 0.0 0.00 0.00 0.00 30 1006.2
20260504015918 28 0.0 0.0 0.00 0.00 0.00 30 1006.2
20260504015418 28 0.0 0.0 0.00 0.00 0.00 31 1006.2
20260504014918 29 0.0 3.2 0.00 0.00 0.00 32 1006.2
20260504014418 29 0.0 3.2 0.00 0.00 0.00 29 1006.2
20260504013918 29 0.0 1.6 0.00 0.00 0.00 28 1006.2
20260504013418 29 0.0 3.2 0.00 0.00 0.00 27 1006.2
20260504012918 29 0.0 3.2 0.00 0.00 0.00 28 1006.2
20260504012417 29 0.0 3.2 0.00 0.00 0.00 28 1006.3
20260504011918 29 0.0 3.2 0.00 0.00 0.00 28 1006.3
20260504011417 29 0.0 0.0 0.00 0.00 0.00 29 1006.3
20260504010917 30 0.0 0.0 0.00 0.00 0.00 31 1006.4
20260504010417 30 0.0 1.6 0.00 0.00 0.00 30 1006.4
20260504005918 30 0.0 1.6 0.00 0.00 0.00 29 1006.4
20260504004417 30 0.0 4.8 0.00 0.00 0.00 29 1006.4
20260504003417 30 1.6 4.8 0.00 0.00 0.00 30 1006.6
20260504002417 30 1.6 8.0 0.00 0.00 0.00 27 1006.7
20260503233916 31 3.2 6.4 0.00 0.00 0.00 26 1006.9
20260503232416 30 0.0 8.0 0.00 0.00 0.00 27 1007.0
20260503230917 30 0.0 6.4 0.00 0.00 0.00 27 1007.3
20260503230416 30 0.0 8.0 0.00 0.00 0.00 28 1007.3
20260503225416 30 1.6 6.4 0.00 0.00 0.00 27 1007.6
20260503222416 30 1.6 8.0 0.00 0.00 0.00 31 1008.0
20260503221417 31 0.0 1.6 0.00 0.00 0.00 32 1008.0
20260503220417 30 0.0 6.4 0.00 0.00 0.00 36 1008.2
20260503215916 30 1.6 6.4 0.00 0.00 0.00 34 1008.2
20260503215417 30 0.0 6.4 0.00 0.00 0.00 38 1008.5
20260503214916 30 4.8 8.0 0.00 0.00 0.00 39 1008.5
20260503213916 30 0.0 4.8 0.00 0.00 0.00 36 1008.6
20260503211417 28 0.0 8.0 0.00 0.00 0.00 38 1008.8
20260503210417 29 0.0 4.8 0.00 0.00 0.00 41 1009.0
20260503205917 28 0.0 8.0 0.00 0.00 0.00 45 1009.0
20260503205417 28 0.0 8.0 0.00 0.00 0.00 44 1009.1
20260503204416 28 1.6 8.0 0.00 0.00 0.00 43 1009.1
20260503203916 28 4.8 6.4 0.00 0.00 0.00 46 1009.4
20260503203416 27 0.0 8.0 0.00 0.00 0.00 45 1009.4
20260503202916 27 3.2 8.0 0.00 0.00 0.00 46 1009.3
20260503202417 27 3.2 8.0 0.00 0.00 0.00 46 1009.5
20260503201916 27 0.0 8.0 0.00 0.00 0.00 46 1009.5
20260503201417 27 0.0 8.0 0.00 0.00 0.00 48 1009.6
20260503200417 27 0.0 6.4 0.00 0.00 0.00 49 1009.7
20260503195916 27 4.8 6.4 0.00 0.00 0.00 47 1009.7
20260503195416 26 0.0 6.4 0.00 0.00 0.00 52 1010.0
20260503194416 26 4.8 9.7 0.00 0.00 0.00 49 1009.9
20260503193916 26 0.0 9.7 0.00 0.00 0.00 49 1010.0
20260503193416 26 0.0 6.4 0.00 0.00 0.00 52 1010.1
20260503192916 25 0.0 8.0 0.00 0.00 0.00 51 1010.0
20260503192416 25 0.0 8.0 0.00 0.00 0.00 53 1010.1
20260503191916 25 3.2 8.0 0.00 0.00 0.00 52 1010.0
20260503191416 25 0.0 8.0 0.00 0.00 0.00 52 1010.0
20260503190916 25 6.4 8.0 0.00 0.00 0.00 52 1010.3
20260503190415 25 0.0 6.4 0.00 0.00 0.00 51 1010.3
20260503185915 25 0.0 8.0 0.00 0.00 0.00 52 1010.3
20260503185415 25 0.0 8.0 0.00 0.00 0.00 51 1010.5
20260503184915 25 0.0 8.0 0.00 0.00 0.00 54 1010.5
20260503184415 25 4.8 8.0 0.00 0.00 0.00 50 1010.5
20260503183915 25 0.0 4.8 0.00 0.00 0.00 50 1010.5
20260503183415 25 0.0 1.6 0.00 0.00 0.00 48 1010.5
20260503182915 25 0.0 4.8 0.00 0.00 0.00 54 1010.5
20260503182415 24 0.0 4.8 0.00 0.00 0.00 55 1010.7
20260503181915 23 3.2 6.4 0.00 0.00 0.00 51 1010.7
20260503181415 23 0.0 8.0 0.00 0.00 0.00 51 1010.7
20260503180915 23 1.6 8.0 0.00 0.00 0.00 51 1010.8
20260503180415 23 4.8 6.4 0.00 0.00 0.00 52 1010.8
20260503175915 23 1.6 8.0 0.00 0.00 0.00 52 1010.8
20260503175415 23 0.0 8.0 0.00 0.00 0.00 52 1010.8
20260503174914 23 0.0 4.8 0.00 0.00 0.00 53 1010.8
20260503174414 23 0.0 6.4 0.00 0.00 0.00 56 1010.8
20260503173914 23 4.8 6.4 0.00 0.00 0.00 54 1010.9
20260503173414 23 1.6 4.8 0.00 0.00 0.00 56 1010.9
20260503172914 23 0.0 6.4 0.00 0.00 0.00 55 1010.9
20260503172414 23 1.6 6.4 0.00 0.00 0.00 55 1011.0
20260503171914 22 0.0 1.6 0.00 0.00 0.00 58 1011.0
20260503171414 22 0.0 0.0 0.00 0.00 0.00 56 1011.0
20260503170914 22 0.0 0.0 0.00 0.00 0.00 62 1010.9
20260503170414 22 0.0 0.0 0.00 0.00 0.00 62 1010.9
20260503150913 16 0.0 0.0 0.00 0.00 0.00 86 1011.3
20260503150413 16 0.0 0.0 0.00 0.00 0.00 88 1011.3
20260503131412 10 0.0 0.0 0.00 0.00 0.00 96 1010.9
20260503130912 10 0.0 0.0 0.00 0.00 0.00 96 1010.9
20260503130411 10 0.0 0.0 0.00 0.00 0.00 96 1010.9
20260503090409 12 0.0 0.0 0.00 0.00 0.00 90 1011.5
20260503081408 13 0.0 0.0 0.00 0.00 0.00 89 1011.5
20260503080908 13 0.0 0.0 0.00 0.00 0.00 89 1011.5
20260503080408 13 0.0 0.0 0.00 0.00 0.00 88 1011.5
20260503072908 13 0.0 0.0 0.00 0.00 0.00 87 1011.9
20260503072408 13 0.0 0.0 0.00 0.00 0.00 87 1011.9
20260503071907 13 0.0 0.0 0.00 0.00 0.00 86 1011.9
20260503071408 13 0.0 0.0 0.00 0.00 0.00 86 1011.9
20260503070407 14 0.0 0.0 0.00 0.00 0.00 85 1011.9
20260503054906 15 0.0 0.0 0.00 0.00 0.00 80 1011.7
20260503054407 16 0.0 0.0 0.00 0.00 0.00 80 1011.8
20260503053907 16 0.0 0.0 0.00 0.00 0.00 79 1011.9
20260503053406 16 0.0 0.0 0.00 0.00 0.00 79 1011.9
20260503052906 16 0.0 0.0 0.00 0.00 0.00 79 1011.9
20260503052407 16 0.0 0.0 0.00 0.00 0.00 79 1011.7
20260503051906 16 0.0 0.0 0.00 0.00 0.00 79 1011.7
20260503051406 16 0.0 0.0 0.00 0.00 0.00 78 1011.7
20260503050936 16 0.0 0.0 0.00 0.00 0.00 78 1011.7
20260503050406 16 0.0 0.0 0.00 0.00 0.00 78 1011.7
20260503045936 16 0.0 0.0 0.00 0.00 0.00 77 1011.7
20260503045406 16 0.0 0.0 0.00 0.00 0.00 77 1011.7
20260503044906 16 0.0 0.0 0.00 0.00 0.00 76 1011.7
20260503044406 16 0.0 0.0 0.00 0.00 0.00 76 1011.7
20260503043905 16 0.0 0.0 0.00 0.00 0.00 76 1011.6
20260503043405 16 0.0 0.0 0.00 0.00 0.00 75 1011.6
20260503042405 17 0.0 0.0 0.00 0.00 0.00 75 1011.5
20260503041936 17 0.0 0.0 0.00 0.00 0.00 74 1011.5
20260503041435 17 0.0 0.0 0.00 0.00 0.00 74 1011.5
20260503040906 17 0.0 0.0 0.00 0.00 0.00 73 1011.4
20260503040436 17 0.0 0.0 0.00 0.00 0.00 73 1011.4
20260503035905 17 0.0 0.0 0.00 0.00 0.00 72 1011.4
20260503035435 17 0.0 4.8 0.00 0.00 0.00 72 1011.2
20260503034905 17 0.0 4.8 0.00 0.00 0.00 72 1011.2
20260503034405 17 1.6 4.8 0.00 0.00 0.00 71 1011.2
20260503033905 17 3.2 4.8 0.00 0.00 0.00 70 1010.9
20260503033405 17 1.6 4.8 0.00 0.00 0.00 70 1010.9
20260503032935 17 0.0 0.0 0.00 0.00 0.00 70 1010.9
20260503032405 17 0.0 0.0 0.00 0.00 0.00 71 1010.4
20260503031935 17 0.0 0.0 0.00 0.00 0.00 70 1010.4
20260503031405 17 0.0 0.0 0.00 0.00 0.00 70 1010.4
20260503030935 17 0.0 0.0 0.00 0.00 0.00 70 1010.4
20260503030405 17 0.0 3.2 0.00 0.00 0.00 69 1010.4
20260503025935 17 0.0 3.2 0.00 0.00 0.00 69 1010.4
20260503025404 17 0.0 3.2 0.00 0.00 0.00 69 1010.6
20260503024905 18 0.0 3.2 0.00 0.00 0.00 69 1010.6
20260503024404 18 0.0 3.2 0.00 0.00 0.00 68 1010.6
20260503023904 18 1.6 1.6 0.00 0.00 0.00 69 1010.9
20260503023404 18 0.0 0.0 0.00 0.00 0.00 70 1010.9
20260503022904 18 0.0 0.0 0.00 0.00 0.00 70 1010.9
20260503022404 18 0.0 0.0 0.00 0.00 0.00 69 1011.4